,,Stat6,,Stat2,,Stat8,,Stat9,,Stat10,,Wind1,,Wind1,
time,status,PA1M_AVG,status,PR1M_SUM,status,RH1M_AVG,status,SR1M_AVG,status,TA1M_AVG,status,W1dAve1m,status,W1sAve1m,
2009-02-24, 00:00:00,VALID,917.274,VALID,0,VALID,100,VALID,-0.169808,VALID,20.0168,VALID,15,VALID,0,
2009-02-24, 00:01:00,VALID,917.288,VALID,0,VALID,100,VALID,-0.152827,VALID,19.9776,VALID,10,VALID,0,
2009-02-24, 00:02:00,VALID,917.298,VALID,0,VALID,100,VALID,-0.135847,VALID,19.9714,VALID,8,VALID,0,
2009-02-24, 00:03:00,VALID,917.281,VALID,0,VALID,100,VALID,-0.169808,VALID,19.9419,VALID,347,VALID,0,
2009-02-24, 00:04:00,VALID,917.273,VALID,0,VALID,100,VALID,-0.118866,VALID,19.9452,VALID,15,VALID,0,
2009-02-24, 00:05:00,VALID,917.259,VALID,0,VALID,100,VALID,-0.169808,VALID,19.9489,VALID,4,VALID,0,
2009-02-24, 00:06:00,VALID,917.259,VALID,0,VALID,100,VALID,-0.101885,VALID,19.9327,VALID,353,VALID,0,
2009-02-24, 00:07:00,VALID,917.231,VALID,0,VALID,100,VALID,-0.135847,VALID,19.9327,VALID,18,VALID,0,
2009-02-24, 00:08:00,VALID,917.219,VALID,0,VALID,100,VALID,-0.0339617,VALID,19.9052,VALID,18,VALID,0.0478051,
2009-02-24, 00:09:00,VALID,917.233,VALID,0,VALID,100,VALID,-0.0509425,VALID,19.8952,VALID,14,VALID,0,
2009-02-24, 00:10:00,VALID,917.223,VALID,0,VALID,100,VALID,-0.0679233,VALID,19.8788,VALID,3,VALID,0.0012429,
2009-02-24, 00:11:00,VALID,917.231,VALID,0,VALID,100,VALID,-0.0509425,VALID,19.876,VALID,13,VALID,0,
2009-02-24, 00:12:00,VALID,917.228,VALID,0,VALID,100,VALID,-0.0509425,VALID,19.8658,VALID,5,VALID,0.00111607,
2009-02-24, 00:13:00,VALID,917.224,VALID,0,VALID,100,VALID,-0.0679233,VALID,19.8628,VALID,5,VALID,0.0657051,
2009-02-24, 00:14:00,VALID,917.213,VALID,0,VALID,100,VALID,-0.0339617,VALID,19.8728,VALID,16,VALID,0,
2009-02-24, 00:15:00,VALID,917.207,VALID,0,VALID,100,VALID,-0.0339617,VALID,19.889,VALID,26,VALID,0,
2009-02-24, 00:16:00,VALID,917.197,VALID,0,VALID,100,VALID,-0.0169808,VALID,19.885,VALID,359,VALID,0,
2009-02-24, 00:17:00,VALID,917.172,VALID,0,VALID,100,VALID,-0.0509425,VALID,19.879,VALID,30,VALID,0,
2009-02-24, 00:18:00,VALID,917.171,VALID,0,VALID,100,VALID,-0.0679233,VALID,19.905,VALID,31,VALID,0,
2009-02-24, 00:19:00,VALID,917.167,VALID,0,VALID,100,VALID,-0.0679233,VALID,19.9082,VALID,27,VALID,0,
2009-02-24, 00:20:00,VALID,917.155,VALID,0,VALID,100,VALID,-0.0339617,VALID,19.902,VALID,15,VALID,0,
2009-02-24, 00:21:00,VALID,917.145,VALID,0,VALID,100,VALID,-0.0339617,VALID,19.8982,VALID,15,VALID,0,
2009-02-24, 00:22:00,VALID,917.163,VALID,0,VALID,100,VALID,-0.0169808,VALID,19.895,VALID,15,VALID,0,
2009-02-24, 00:23:00,VALID,917.161,VALID,0,VALID,100,VALID,-0.0169808,VALID,19.9007,VALID,22,VALID,0,
2009-02-24, 00:24:00,VALID,917.168,VALID,0,VALID,100,VALID,0.0339617,VALID,19.871,VALID,16,VALID,0.0446429,
2009-02-24, 00:25:00,VALID,917.187,VALID,0,VALID,100,VALID,-0.0169808,VALID,19.8553,VALID,1,VALID,0.00560462,
2009-02-24, 00:26:00,VALID,917.2,VALID,0,VALID,100,VALID,-0.0169808,VALID,19.8456,VALID,6,VALID,0.0012718,
2009-02-24, 00:27:00,VALID,917.207,VALID,0,VALID,100,VALID,0,VALID,19.8521,VALID,2,VALID,0.00426136,
2009-02-24, 00:28:00,VALID,917.205,VALID,0,VALID,100,VALID,0,VALID,19.8585,VALID,8,VALID,0,
2009-02-24, 00:29:00,VALID,917.207,VALID,0,VALID,100,VALID,-0.0169808,VALID,19.8486,VALID,10,VALID,0.0784647,
2009-02-24, 00:30:00,VALID,917.213,VALID,0,VALID,100,VALID,-0.0169808,VALID,19.8521,VALID,358,VALID,0.00109012,
2009-02-24, 00:31:00,VALID,917.199,VALID,0,VALID,100,VALID,0,VALID,19.8488,VALID,351,VALID,0.110328,
2009-02-24, 00:32:00,VALID,917.206,VALID,0,VALID,100,VALID,0,VALID,19.8453,VALID,13,VALID,0.0149457,
2009-02-24, 00:33:00,VALID,917.202,VALID,0,VALID,100,VALID,0,VALID,19.8553,VALID,10,VALID,0.0721726,
2009-02-24, 00:34:00,VALID,917.204,VALID,0,VALID,100,VALID,0,VALID,19.8618,VALID,8,VALID,0.0543155,
2009-02-24, 00:35:00,VALID,917.211,VALID,0,VALID,100,VALID,0.0339617,VALID,19.8683,VALID,16,VALID,0,
2009-02-24, 00:36:00,VALID,917.219,VALID,0,VALID,100,VALID,0,VALID,19.868,VALID,10,VALID,0,
2009-02-24, 00:37:00,VALID,917.227,VALID,0,VALID,100,VALID,0.0169808,VALID,19.871,VALID,16,VALID,0,
2009-02-24, 00:38:00,VALID,917.237,VALID,0,VALID,100,VALID,0,VALID,19.8683,VALID,11,VALID,0,
2009-02-24, 00:39:00,VALID,917.249,VALID,0,VALID,100,VALID,0.0339617,VALID,19.8583,VALID,353,VALID,0.25705,
2009-02-24, 00:40:00,VALID,917.248,VALID,0,VALID,100,VALID,0,VALID,19.855,VALID,16,VALID,0.0402058,
2009-02-24, 00:41:00,VALID,917.237,VALID,0,VALID,100,VALID,0,VALID,19.8518,VALID,10,VALID,0.497514,
2009-02-24, 00:42:00,VALID,917.242,VALID,0,VALID,100,VALID,0,VALID,19.855,VALID,7,VALID,0.00130208,
2009-02-24, 00:43:00,VALID,917.222,VALID,0,VALID,100,VALID,0.0169808,VALID,19.8615,VALID,24,VALID,0.00342988,
2009-02-24, 00:44:00,VALID,917.208,VALID,0,VALID,100,VALID,0,VALID,19.8583,VALID,319,VALID,0.0857558,
2009-02-24, 00:45:00,VALID,917.206,VALID,0,VALID,100,VALID,0,VALID,19.868,VALID,2,VALID,0.0991443,
2009-02-24, 00:46:00,VALID,917.183,VALID,0,VALID,100,VALID,0.0169808,VALID,19.868,VALID,17,VALID,0.144622,
2009-02-24, 00:47:00,VALID,917.173,VALID,0,VALID,100,VALID,0,VALID,19.8877,VALID,13,VALID,0.0772372,
2009-02-24, 00:48:00,VALID,917.152,VALID,0,VALID,100,VALID,0.0339617,VALID,19.8907,VALID,8,VALID,0,
2009-02-24, 00:49:00,VALID,917.123,VALID,0,VALID,100,VALID,0.0169808,VALID,19.8745,VALID,360,VALID,1.15207,
2009-02-24, 00:50:00,VALID,917.126,VALID,0,VALID,100,VALID,0.0169808,VALID,19.8875,VALID,343,VALID,0.0714558,
2009-02-24, 00:51:00,VALID,917.116,VALID,0,VALID,100,VALID,0.0339617,VALID,19.9135,VALID,358,VALID,0.0012429,
2009-02-24, 00:52:00,VALID,917.112,VALID,0,VALID,100,VALID,0.0169808,VALID,19.9167,VALID,343,VALID,0,
2009-02-24, 00:53:00,VALID,917.088,VALID,0,VALID,100,VALID,-0.101885,VALID,19.9147,VALID,13,VALID,0.00111607,
2009-02-24, 00:54:00,VALID,917.076,VALID,0,VALID,100,VALID,-0.135847,VALID,19.9185,VALID,14,VALID,0,
2009-02-24, 00:55:00,VALID,917.066,VALID,0,VALID,100,VALID,-0.101885,VALID,19.9185,VALID,12,VALID,0.0492369,
2009-02-24, 00:56:00,VALID,917.049,VALID,0,VALID,100,VALID,-0.0849042,VALID,19.8925,VALID,10,VALID,0.00669643,
2009-02-24, 00:57:00,VALID,917.033,VALID,0,VALID,100,VALID,-0.118866,VALID,19.8893,VALID,22,VALID,0,
2009-02-24, 00:58:00,VALID,917.034,VALID,0,VALID,100,VALID,-0.101885,VALID,19.8765,VALID,23,VALID,0,
2009-02-24, 00:59:00,VALID,917.009,VALID,0,VALID,100,VALID,-0.101885,VALID,19.8728,VALID,11,VALID,0,
2009-02-24, 01:00:00,VALID,916.977,VALID,0,VALID,100,VALID,-0.0849042,VALID,19.863,VALID,17,VALID,0.066311,
2009-02-24, 01:01:00,VALID,916.974,VALID,0,VALID,100,VALID,-0.101885,VALID,19.863,VALID,2,VALID,0.00240385,
2009-02-24, 01:02:00,VALID,916.934,VALID,0,VALID,100,VALID,-0.0849042,VALID,19.8398,VALID,23,VALID,0,
2009-02-24, 01:03:00,VALID,916.918,VALID,0,VALID,100,VALID,-0.0679233,VALID,19.8533,VALID,25,VALID,0,
2009-02-24, 01:04:00,VALID,916.889,VALID,0,VALID,100,VALID,-0.0679233,VALID,19.8531,VALID,19,VALID,0.0356326,
2009-02-24, 01:05:00,VALID,916.864,VALID,0,VALID,100,VALID,-0.101885,VALID,19.8336,VALID,13,VALID,0.0545058,
2009-02-24, 01:06:00,VALID,916.847,VALID,0,VALID,100,VALID,-0.0849042,VALID,19.8171,VALID,357,VALID,0,
2009-02-24, 01:07:00,VALID,916.818,VALID,0,VALID,100,VALID,-0.0509425,VALID,19.7946,VALID,4,VALID,0.0470526,
2009-02-24, 01:08:00,VALID,916.806,VALID,0,VALID,100,VALID,-0.101885,VALID,19.8014,VALID,14,VALID,0.00486111,
2009-02-24, 01:09:00,VALID,916.789,VALID,0,VALID,100,VALID,-0.0849042,VALID,19.7782,VALID,4,VALID,0.0590278,
2009-02-24, 01:10:00,VALID,916.758,VALID,0,VALID,100,VALID,-0.118866,VALID,19.7884,VALID,11,VALID,0.156064,
2009-02-24, 01:11:00,VALID,916.73,VALID,0,VALID,100,VALID,-0.0849042,VALID,19.7787,VALID,19,VALID,0.64668,
2009-02-24, 01:12:00,VALID,916.699,VALID,0,VALID,100,VALID,-0.101885,VALID,19.7719,VALID,9,VALID,0.0721726,
2009-02-24, 01:13:00,VALID,916.682,VALID,0,VALID,100,VALID,-0.0849042,VALID,19.7592,VALID,14,VALID,0.786644,
2009-02-24, 01:14:00,VALID,916.648,VALID,0,VALID,99.9316,VALID,-0.101885,VALID,19.7527,VALID,21,VALID,1.2441,
2009-02-24, 01:15:00,VALID,916.642,VALID,0,VALID,99.8464,VALID,-0.101885,VALID,19.7622,VALID,9,VALID,0.742543,
2009-02-24, 01:16:00,VALID,916.612,VALID,0,VALID,99.7714,VALID,-0.101885,VALID,19.7622,VALID,19,VALID,0.563408,
2009-02-24, 01:17:00,VALID,916.593,VALID,0,VALID,99.7192,VALID,-0.0849042,VALID,19.7622,VALID,360,VALID,0.107376,
2009-02-24, 01:18:00,VALID,916.578,VALID,0,VALID,99.7167,VALID,-0.101885,VALID,19.7522,VALID,11,VALID,0.220385,
2009-02-24, 01:19:00,VALID,916.552,VALID,0,VALID,99.7052,VALID,-0.0849042,VALID,19.7327,VALID,11,VALID,0.396984,
2009-02-24, 01:20:00,VALID,916.54,VALID,0,VALID,99.7307,VALID,-0.0849042,VALID,19.73,VALID,11,VALID,0.0226563,
2009-02-24, 01:21:00,VALID,916.522,VALID,0,VALID,99.7777,VALID,-0.0679233,VALID,19.7068,VALID,9,VALID,0.196023,
2009-02-24, 01:22:00,VALID,916.501,VALID,0,VALID,99.8438,VALID,-0.0679233,VALID,19.6941,VALID,3,VALID,0.15253,
2009-02-24, 01:23:00,VALID,916.486,VALID,0,VALID,99.8782,VALID,-0.0339617,VALID,19.6741,VALID,8,VALID,0.407012,
2009-02-24, 01:24:00,VALID,916.44,VALID,0,VALID,99.8871,VALID,-0.0169808,VALID,19.6676,VALID,10,VALID,0.282895,
2009-02-24, 01:25:00,VALID,916.427,VALID,0,VALID,99.8515,VALID,-0.0339617,VALID,19.6741,VALID,10,VALID,0.296342,
2009-02-24, 01:26:00,VALID,916.419,VALID,0,VALID,99.7943,VALID,-0.0509425,VALID,19.6706,VALID,13,VALID,0.521621,
2009-02-24, 01:27:00,VALID,916.412,VALID,0,VALID,99.7739,VALID,-0.0169808,VALID,19.6446,VALID,23,VALID,0.209936,
2009-02-24, 01:28:00,VALID,916.382,VALID,0,VALID,99.8095,VALID,-0.0339617,VALID,19.6446,VALID,26,VALID,0.359766,
2009-02-24, 01:29:00,VALID,916.4,VALID,0,VALID,99.8451,VALID,0,VALID,19.6389,VALID,3,VALID,0,
2009-02-24, 01:30:00,VALID,916.379,VALID,0,VALID,99.9303,VALID,0,VALID,19.6249,VALID,355,VALID,0.000887784,
2009-02-24, 01:31:00,VALID,916.361,VALID,0,VALID,99.9494,VALID,-0.0169808,VALID,19.6249,VALID,6,VALID,0.000355114,
2009-02-24, 01:32:00,VALID,916.345,VALID,0,VALID,99.9619,VALID,-0.0169808,VALID,19.6119,VALID,9,VALID,0.205669,
2009-02-24, 01:33:00,VALID,916.332,VALID,0,VALID,100,VALID,0,VALID,19.6025,VALID,14,VALID,0.433377,
2009-02-24, 01:34:00,VALID,916.324,VALID,0,VALID,100,VALID,-0.0169808,VALID,19.5825,VALID,10,VALID,0.199033,
2009-02-24, 01:35:00,VALID,916.333,VALID,0,VALID,100,VALID,0,VALID,19.583,VALID,5,VALID,0.00475543,
2009-02-24, 01:36:00,VALID,916.313,VALID,0,VALID,100,VALID,-0.0169808,VALID,19.57,VALID,17,VALID,0.0186738,
2009-02-24, 01:37:00,VALID,916.313,VALID,0,VALID,100,VALID,0,VALID,19.5638,VALID,8,VALID,0.0112645,
2009-02-24, 01:38:00,VALID,916.309,VALID,0,VALID,100,VALID,0,VALID,19.554,VALID,360,VALID,0.300347,
2009-02-24, 01:39:00,VALID,916.291,VALID,0,VALID,100,VALID,0,VALID,19.5506,VALID,23,VALID,0.497954,
2009-02-24, 01:40:00,VALID,916.286,VALID,0,VALID,100,VALID,-0.0169808,VALID,19.551,VALID,1,VALID,0.21317,
2009-02-24, 01:41:00,VALID,916.255,VALID,0,VALID,100,VALID,-0.0169808,VALID,19.5441,VALID,10,VALID,0.191592,
2009-02-24, 01:42:00,VALID,916.242,VALID,0,VALID,100,VALID,-0.0169808,VALID,19.5376,VALID,1,VALID,0.0957961,
2009-02-24, 01:43:00,VALID,916.221,VALID,0,VALID,100,VALID,-0.0169808,VALID,19.5508,VALID,10,VALID,0.00399709,
2009-02-24, 01:44:00,VALID,916.2,VALID,0,VALID,100,VALID,-0.0169808,VALID,19.5473,VALID,7,VALID,0.00706845,
2009-02-24, 01:45:00,VALID,916.182,VALID,0,VALID,100,VALID,-0.0169808,VALID,19.5343,VALID,16,VALID,0.112827,
2009-02-24, 01:46:00,VALID,916.174,VALID,0,VALID,100,VALID,-0.0169808,VALID,19.5273,VALID,359,VALID,0.0585938,
2009-02-24, 01:47:00,VALID,916.148,VALID,0,VALID,100,VALID,-0.0169808,VALID,19.5346,VALID,322,VALID,0,
2009-02-24, 01:48:00,VALID,916.12,VALID,0,VALID,100,VALID,0,VALID,19.5441,VALID,7,VALID,0.15532,
2009-02-24, 01:49:00,VALID,916.101,VALID,0,VALID,100,VALID,0,VALID,19.5368,VALID,348,VALID,0.0221037,
2009-02-24, 01:50:00,VALID,916.074,VALID,0,VALID,100,VALID,-0.0169808,VALID,19.5273,VALID,354,VALID,0.0442116,
2009-02-24, 01:51:00,VALID,916.049,VALID,0,VALID,100,VALID,0.0169808,VALID,19.5308,VALID,10,VALID,0,
2009-02-24, 01:52:00,VALID,916.026,VALID,0,VALID,100,VALID,0.0169808,VALID,19.5174,VALID,359,VALID,0.056593,
2009-02-24, 01:53:00,VALID,916.014,VALID,0,VALID,100,VALID,-0.0509425,VALID,19.5278,VALID,359,VALID,0.393973,
2009-02-24, 01:54:00,VALID,916,VALID,0,VALID,100,VALID,-0.0339617,VALID,19.5079,VALID,12,VALID,0.156808,
2009-02-24, 01:55:00,VALID,915.985,VALID,0,VALID,100,VALID,-0.0339617,VALID,19.5186,VALID,5,VALID,0.337391,
2009-02-24, 01:56:00,VALID,915.991,VALID,0,VALID,100,VALID,-0.0339617,VALID,19.5051,VALID,21,VALID,0.32641,
2009-02-24, 01:57:00,VALID,915.989,VALID,0,VALID,100,VALID,-0.0169808,VALID,19.4857,VALID,7,VALID,0.101381,
2009-02-24, 01:58:00,VALID,915.992,VALID,0,VALID,100,VALID,-0.0169808,VALID,19.4854,VALID,10,VALID,0,
2009-02-24, 01:59:00,VALID,915.98,VALID,0,VALID,100,VALID,-0.0339617,VALID,19.4887,VALID,7,VALID,0.288504,
2009-02-24, 02:00:00,VALID,915.974,VALID,0,VALID,100,VALID,-0.101885,VALID,19.4896,VALID,15,VALID,0.104469,
2009-02-24, 02:01:00,VALID,915.972,VALID,0,VALID,100,VALID,-0.101885,VALID,19.4866,VALID,19,VALID,0.00639205,
2009-02-24, 02:02:00,VALID,915.967,VALID,0,VALID,100,VALID,-0.101885,VALID,19.4966,VALID,18,VALID,0,
2009-02-24, 02:03:00,VALID,915.966,VALID,0,VALID,100,VALID,-0.135847,VALID,19.5071,VALID,13,VALID,0,
2009-02-24, 02:04:00,VALID,915.944,VALID,0,VALID,100,VALID,-0.118866,VALID,19.5001,VALID,21,VALID,0.0306784,
2009-02-24, 02:05:00,VALID,915.94,VALID,0,VALID,100,VALID,-0.135847,VALID,19.4737,VALID,12,VALID,0.108073,
2009-02-24, 02:06:00,VALID,915.913,VALID,0,VALID,100,VALID,-0.135847,VALID,19.4542,VALID,14,VALID,0.474848,
2009-02-24, 02:07:00,VALID,915.898,VALID,0,VALID,100,VALID,-0.118866,VALID,19.4679,VALID,20,VALID,0.210764,
2009-02-24, 02:08:00,VALID,915.903,VALID,0,VALID,100,VALID,-0.0509425,VALID,19.4537,VALID,17,VALID,0.00279018,
2009-02-24, 02:09:00,VALID,915.895,VALID,0,VALID,100,VALID,0,VALID,19.4697,VALID,350,VALID,0,
2009-02-24, 02:10:00,VALID,915.891,VALID,0,VALID,100,VALID,-0.0679233,VALID,19.4892,VALID,349,VALID,0.0012718,
2009-02-24, 02:11:00,VALID,915.895,VALID,0,VALID,100,VALID,-0.0339617,VALID,19.5154,VALID,19,VALID,0.0245276,
2009-02-24, 02:12:00,VALID,915.892,VALID,0,VALID,100,VALID,0,VALID,19.5243,VALID,17,VALID,0.4375,
2009-02-24, 02:13:00,VALID,915.871,VALID,0,VALID,100,VALID,-0.0679233,VALID,19.5545,VALID,11,VALID,0.149926,
2009-02-24, 02:14:00,VALID,915.856,VALID,0,VALID,100,VALID,-0.0169808,VALID,19.5673,VALID,9,VALID,0.0342262,
2009-02-24, 02:15:00,VALID,915.846,VALID,0,VALID,100,VALID,-0.0509425,VALID,19.5802,VALID,10,VALID,0.355469,
2009-02-24, 02:16:00,VALID,915.844,VALID,0,VALID,100,VALID,-0.0169808,VALID,19.6,VALID,19,VALID,0.401105,
2009-02-24, 02:17:00,VALID,915.83,VALID,0,VALID,100,VALID,-0.0169808,VALID,19.6032,VALID,17,VALID,0.0773983,
2009-02-24, 02:18:00,VALID,915.809,VALID,0,VALID,100,VALID,-0.0169808,VALID,19.5895,VALID,29,VALID,0.898438,
2009-02-24, 02:19:00,VALID,915.8,VALID,0,VALID,100,VALID,-0.0339617,VALID,19.6162,VALID,37,VALID,0.215402,
2009-02-24, 02:20:00,VALID,915.792,VALID,0,VALID,100,VALID,-0.0339617,VALID,19.6257,VALID,18,VALID,0.00297619,
2009-02-24, 02:21:00,VALID,915.77,VALID,0,VALID,100,VALID,-0.0339617,VALID,19.6124,VALID,2,VALID,0.0093006,
2009-02-24, 02:22:00,VALID,915.765,VALID,0,VALID,100,VALID,-0.0509425,VALID,19.596,VALID,352,VALID,0,
2009-02-24, 02:23:00,VALID,915.758,VALID,0,VALID,100,VALID,-0.0679233,VALID,19.6032,VALID,10,VALID,0,
2009-02-24, 02:24:00,VALID,915.749,VALID,0,VALID,100,VALID,-0.0169808,VALID,19.5832,VALID,1,VALID,0,
2009-02-24, 02:25:00,VALID,915.733,VALID,0,VALID,100,VALID,-0.0339617,VALID,19.5733,VALID,341,VALID,0,
2009-02-24, 02:26:00,VALID,915.709,VALID,0,VALID,100,VALID,-0.0339617,VALID,19.5962,VALID,268,VALID,0,
2009-02-24, 02:27:00,VALID,915.673,VALID,0,VALID,100,VALID,-0.0339617,VALID,19.6127,VALID,11,VALID,0,
2009-02-24, 02:28:00,VALID,915.637,VALID,0,VALID,100,VALID,-0.0339617,VALID,19.5997,VALID,31,VALID,0,
2009-02-24, 02:29:00,VALID,915.612,VALID,0,VALID,100,VALID,-0.0339617,VALID,19.5897,VALID,19,VALID,0.0843395,
2009-02-24, 02:30:00,VALID,915.572,VALID,0,VALID,100,VALID,-0.0169808,VALID,19.5965,VALID,25,VALID,0,
2009-02-24, 02:31:00,VALID,915.538,VALID,0,VALID,100,VALID,-0.0509425,VALID,19.5927,VALID,34,VALID,0,
2009-02-24, 02:32:00,VALID,915.504,VALID,0,VALID,100,VALID,-0.0509425,VALID,19.6032,VALID,35,VALID,0,
2009-02-24, 02:33:00,VALID,915.487,VALID,0,VALID,100,VALID,-0.0849042,VALID,19.6035,VALID,33,VALID,0,
2009-02-24, 02:34:00,VALID,915.451,VALID,0,VALID,100,VALID,-0.0509425,VALID,19.6035,VALID,23,VALID,0,
2009-02-24, 02:35:00,VALID,915.425,VALID,0,VALID,100,VALID,-0.0509425,VALID,19.5937,VALID,41,VALID,0.000762195,
2009-02-24, 02:36:00,VALID,915.397,VALID,0,VALID,100,VALID,-0.0169808,VALID,19.5772,VALID,48,VALID,0.000509511,
2009-02-24, 02:37:00,VALID,915.393,VALID,0,VALID,100,VALID,-0.0339617,VALID,19.5603,VALID,38,VALID,0.00111607,
2009-02-24, 02:38:00,VALID,915.383,VALID,0,VALID,100,VALID,-0.0339617,VALID,19.5605,VALID,37,VALID,0,
2009-02-24, 02:39:00,VALID,915.39,VALID,0,VALID,100,VALID,-0.0509425,VALID,19.5735,VALID,17,VALID,0.0661204,
2009-02-24, 02:40:00,VALID,915.371,VALID,0,VALID,100,VALID,-0.0339617,VALID,19.6,VALID,351,VALID,0.0012429,
2009-02-24, 02:41:00,VALID,915.36,VALID,0,VALID,100,VALID,-0.0339617,VALID,19.5832,VALID,349,VALID,0,
2009-02-24, 02:42:00,VALID,915.333,VALID,0,VALID,100,VALID,-0.0169808,VALID,19.5698,VALID,349,VALID,0,
2009-02-24, 02:43:00,VALID,915.316,VALID,0,VALID,100,VALID,-0.0339617,VALID,19.5832,VALID,349,VALID,0,
2009-02-24, 02:44:00,VALID,915.332,VALID,0,VALID,100,VALID,-0.0849042,VALID,19.5865,VALID,349,VALID,0,
2009-02-24, 02:45:00,VALID,915.322,VALID,0,VALID,100,VALID,-0.0849042,VALID,19.5835,VALID,349,VALID,0,
2009-02-24, 02:46:00,VALID,915.319,VALID,0,VALID,100,VALID,-0.0509425,VALID,19.57,VALID,349,VALID,0,
2009-02-24, 02:47:00,VALID,915.297,VALID,0,VALID,100,VALID,-0.0509425,VALID,19.5705,VALID,349,VALID,0,
2009-02-24, 02:48:00,VALID,915.283,VALID,0,VALID,100,VALID,-0.0679233,VALID,19.5807,VALID,349,VALID,0,
2009-02-24, 02:49:00,VALID,915.287,VALID,0,VALID,100,VALID,-0.0169808,VALID,19.5605,VALID,349,VALID,0,
2009-02-24, 02:50:00,VALID,915.266,VALID,0,VALID,100,VALID,-0.0509425,VALID,19.5705,VALID,349,VALID,0,
2009-02-24, 02:51:00,VALID,915.25,VALID,0,VALID,100,VALID,-0.0509425,VALID,19.5743,VALID,349,VALID,0,
2009-02-24, 02:52:00,VALID,915.237,VALID,0,VALID,100,VALID,-0.0509425,VALID,19.5643,VALID,29,VALID,0,
2009-02-24, 02:53:00,VALID,915.225,VALID,0,VALID,100,VALID,-0.0339617,VALID,19.5443,VALID,73,VALID,0,
2009-02-24, 02:54:00,VALID,915.209,VALID,0,VALID,100,VALID,-0.0679233,VALID,19.5543,VALID,73,VALID,0,
2009-02-24, 02:55:00,VALID,915.189,VALID,0,VALID,100,VALID,-0.0509425,VALID,19.5508,VALID,73,VALID,0,
2009-02-24, 02:56:00,VALID,915.193,VALID,0,VALID,100,VALID,-0.0509425,VALID,19.5608,VALID,73,VALID,0,
2009-02-24, 02:57:00,VALID,915.189,VALID,0,VALID,100,VALID,-0.0509425,VALID,19.548,VALID,73,VALID,0,
2009-02-24, 02:58:00,VALID,915.169,VALID,0,VALID,100,VALID,-0.0679233,VALID,19.5316,VALID,68,VALID,0,
2009-02-24, 02:59:00,VALID,915.176,VALID,0,VALID,100,VALID,-0.0679233,VALID,19.5186,VALID,52,VALID,0,
2009-02-24, 03:00:00,VALID,915.187,VALID,0,VALID,100,VALID,-0.0509425,VALID,19.5126,VALID,52,VALID,0,
2009-02-24, 03:01:00,VALID,915.179,VALID,0,VALID,100,VALID,-0.0509425,VALID,19.4864,VALID,47,VALID,0,
2009-02-24, 03:02:00,VALID,915.17,VALID,0,VALID,100,VALID,-0.101885,VALID,19.4991,VALID,37,VALID,0,
2009-02-24, 03:03:00,VALID,915.164,VALID,0,VALID,100,VALID,-0.0849042,VALID,19.5124,VALID,37,VALID,0,
2009-02-24, 03:04:00,VALID,915.164,VALID,0,VALID,100,VALID,-0.0679233,VALID,19.5061,VALID,45,VALID,0,
2009-02-24, 03:05:00,VALID,915.15,VALID,0,VALID,100,VALID,-0.0849042,VALID,19.5126,VALID,64,VALID,0,
2009-02-24, 03:06:00,VALID,915.161,VALID,0,VALID,100,VALID,-0.0679233,VALID,19.5413,VALID,66,VALID,0,
2009-02-24, 03:07:00,VALID,915.174,VALID,0,VALID,100,VALID,-0.0509425,VALID,19.548,VALID,66,VALID,0,
2009-02-24, 03:08:00,VALID,915.165,VALID,0,VALID,100,VALID,-0.0509425,VALID,19.5381,VALID,66,VALID,0,
2009-02-24, 03:09:00,VALID,915.161,VALID,0,VALID,100,VALID,-0.0509425,VALID,19.5348,VALID,66,VALID,0,
2009-02-24, 03:10:00,VALID,915.167,VALID,0,VALID,100,VALID,-0.0339617,VALID,19.5381,VALID,32,VALID,0.0494186,
2009-02-24, 03:11:00,VALID,915.152,VALID,0,VALID,100,VALID,0,VALID,19.5575,VALID,19,VALID,0,
2009-02-24, 03:12:00,VALID,915.147,VALID,0,VALID,100,VALID,-0.0509425,VALID,19.5535,VALID,19,VALID,0,
2009-02-24, 03:13:00,VALID,915.142,VALID,0,VALID,100,VALID,-0.0339617,VALID,19.5575,VALID,19,VALID,0,
2009-02-24, 03:14:00,VALID,915.147,VALID,0,VALID,100,VALID,-0.0169808,VALID,19.5538,VALID,19,VALID,0,
2009-02-24, 03:15:00,VALID,915.144,VALID,0,VALID,100,VALID,-0.0679233,VALID,19.5436,VALID,19,VALID,0,
2009-02-24, 03:16:00,VALID,915.149,VALID,0,VALID,100,VALID,-0.0169808,VALID,19.5573,VALID,19,VALID,0,
2009-02-24, 03:17:00,VALID,915.147,VALID,0,VALID,100,VALID,-0.0169808,VALID,19.567,VALID,19,VALID,0,
2009-02-24, 03:18:00,VALID,915.137,VALID,0,VALID,100,VALID,-0.0169808,VALID,19.5506,VALID,17,VALID,0,
2009-02-24, 03:19:00,VALID,915.122,VALID,0,VALID,100,VALID,-0.0339617,VALID,19.5603,VALID,8,VALID,0,
2009-02-24, 03:20:00,VALID,915.111,VALID,0,VALID,100,VALID,-0.0339617,VALID,19.5568,VALID,12,VALID,0,
2009-02-24, 03:21:00,VALID,915.118,VALID,0,VALID,100,VALID,-0.0169808,VALID,19.5413,VALID,12,VALID,0,
2009-02-24, 03:22:00,VALID,915.122,VALID,0,VALID,100,VALID,-0.0339617,VALID,19.5181,VALID,12,VALID,0,
2009-02-24, 03:23:00,VALID,915.133,VALID,0,VALID,100,VALID,-0.0339617,VALID,19.5119,VALID,12,VALID,0,
2009-02-24, 03:24:00,VALID,915.136,VALID,0,VALID,100,VALID,-0.0339617,VALID,19.5089,VALID,12,VALID,0,
2009-02-24, 03:25:00,VALID,915.128,VALID,0,VALID,100,VALID,0,VALID,19.5021,VALID,12,VALID,0,
2009-02-24, 03:26:00,VALID,915.123,VALID,0,VALID,100,VALID,-0.0339617,VALID,19.5089,VALID,12,VALID,0,
2009-02-24, 03:27:00,VALID,915.132,VALID,0,VALID,100,VALID,-0.0509425,VALID,19.5084,VALID,12,VALID,0,
2009-02-24, 03:28:00,VALID,915.104,VALID,0,VALID,100,VALID,-0.0509425,VALID,19.5151,VALID,60,VALID,0,
2009-02-24, 03:29:00,VALID,915.113,VALID,0,VALID,100,VALID,-0.0339617,VALID,19.5278,VALID,24,VALID,0,
2009-02-24, 03:30:00,VALID,915.11,VALID,0,VALID,100,VALID,-0.0509425,VALID,19.5216,VALID,352,VALID,0,
2009-02-24, 03:31:00,VALID,915.105,VALID,0,VALID,100,VALID,-0.0509425,VALID,19.5154,VALID,352,VALID,0,
2009-02-24, 03:32:00,VALID,915.112,VALID,0,VALID,100,VALID,-0.0339617,VALID,19.5086,VALID,352,VALID,0,
2009-02-24, 03:33:00,VALID,915.115,VALID,0,VALID,100,VALID,-0.0849042,VALID,19.5223,VALID,352,VALID,0,
2009-02-24, 03:34:00,VALID,915.146,VALID,0,VALID,100,VALID,-0.0509425,VALID,19.5154,VALID,353,VALID,0,
2009-02-24, 03:35:00,VALID,915.145,VALID,0,VALID,100,VALID,-0.0169808,VALID,19.4892,VALID,354,VALID,0,
2009-02-24, 03:36:00,VALID,915.161,VALID,0,VALID,100,VALID,-0.0509425,VALID,19.4604,VALID,354,VALID,0,
2009-02-24, 03:37:00,VALID,915.171,VALID,0,VALID,100,VALID,-0.0169808,VALID,19.4278,VALID,11,VALID,0,
2009-02-24, 03:38:00,VALID,915.169,VALID,0,VALID,100,VALID,-0.0509425,VALID,19.4143,VALID,17,VALID,0,
2009-02-24, 03:39:00,VALID,915.163,VALID,0,VALID,100,VALID,-0.0339617,VALID,19.411,VALID,20,VALID,0,
2009-02-24, 03:40:00,VALID,915.171,VALID,0,VALID,100,VALID,-0.0169808,VALID,19.4215,VALID,21,VALID,0,
2009-02-24, 03:41:00,VALID,915.167,VALID,0,VALID,100,VALID,-0.0169808,VALID,19.431,VALID,23,VALID,0,
2009-02-24, 03:42:00,VALID,915.163,VALID,0,VALID,100,VALID,0,VALID,19.4178,VALID,23,VALID,0,
2009-02-24, 03:43:00,VALID,915.164,VALID,0,VALID,100,VALID,-0.0339617,VALID,19.418,VALID,23,VALID,0,
2009-02-24, 03:44:00,VALID,915.162,VALID,0,VALID,100,VALID,-0.0679233,VALID,19.4048,VALID,23,VALID,0,